TimeEDT,TemperatureF,Dew PointF,Humidity,Sea Level PressureIn,VisibilityMPH,Wind Direction,Wind SpeedMPH,Gust SpeedMPH,PrecipitationIn,Events,Conditions,WindDirDegrees,DateUTC
12:15 AM,60.8,55.4,82,29.93,10.0,Calm,Calm,-,N/A,,Scattered Clouds,0,2013-10-17 04:15:00
12:35 AM,59.0,55.4,88,29.92,7.0,Calm,Calm,-,N/A,,Scattered Clouds,0,2013-10-17 04:35:00
12:55 AM,59.0,55.4,88,29.92,7.0,Calm,Calm,-,N/A,,Scattered Clouds,0,2013-10-17 04:55:00
1:15 AM,59.0,55.4,88,29.91,7.0,Calm,Calm,-,N/A,,Scattered Clouds,0,2013-10-17 05:15:00
1:35 AM,60.8,55.4,82,29.91,10.0,SSW,4.6,-,N/A,,Overcast,210,2013-10-17 05:35:00
1:55 AM,60.8,55.4,82,29.92,7.0,South,4.6,-,N/A,,Overcast,190,2013-10-17 05:55:00
2:15 AM,60.8,57.2,88,29.91,7.0,South,6.9,-,N/A,,Overcast,180,2013-10-17 06:15:00
2:35 AM,60.8,57.2,88,29.90,7.0,South,5.8,-,N/A,,Overcast,190,2013-10-17 06:35:00
2:55 AM,60.8,55.4,82,29.91,7.0,SSW,3.5,-,N/A,,Overcast,210,2013-10-17 06:55:00
3:15 AM,60.8,57.2,88,29.90,7.0,Calm,Calm,-,N/A,,Overcast,0,2013-10-17 07:15:00
3:35 AM,60.8,57.2,88,29.90,7.0,South,4.6,-,N/A,,Overcast,180,2013-10-17 07:35:00
3:55 AM,60.8,57.2,88,29.90,7.0,South,4.6,-,N/A,,Overcast,190,2013-10-17 07:55:00
4:15 AM,60.8,57.2,88,29.89,7.0,South,3.5,-,N/A,Rain,Light Rain,180,2013-10-17 08:15:00
4:35 AM,60.8,57.2,88,29.89,7.0,Calm,Calm,-,N/A,,Overcast,0,2013-10-17 08:35:00
4:55 AM,60.8,57.2,88,29.89,5.0,Calm,Calm,-,N/A,,Overcast,0,2013-10-17 08:55:00
5:15 AM,60.8,59.0,94,29.89,7.0,South,5.8,-,N/A,,Overcast,180,2013-10-17 09:15:00
5:35 AM,60.8,59.0,94,29.89,7.0,SSW,4.6,-,N/A,,Overcast,200,2013-10-17 09:35:00
5:55 AM,60.8,57.2,88,29.89,5.0,SSW,3.5,-,N/A,,Overcast,200,2013-10-17 09:55:00
6:15 AM,60.8,57.2,88,29.89,7.0,South,4.6,-,N/A,,Overcast,190,2013-10-17 10:15:00
6:35 AM,60.8,59.0,94,29.90,7.0,SSW,4.6,-,N/A,,Overcast,200,2013-10-17 10:35:00
6:55 AM,60.8,59.0,94,29.90,7.0,SSW,4.6,-,N/A,,Overcast,200,2013-10-17 10:55:00
7:15 AM,60.8,59.0,94,29.90,5.0,SW,3.5,-,N/A,,Overcast,220,2013-10-17 11:15:00
7:35 AM,60.8,59.0,94,29.91,5.0,SW,3.5,-,N/A,,Overcast,220,2013-10-17 11:35:00
7:55 AM,60.8,59.0,94,29.91,5.0,Calm,Calm,-,N/A,,Overcast,0,2013-10-17 11:55:00
8:15 AM,62.6,59.0,88,29.91,5.0,SW,3.5,-,N/A,,Overcast,220,2013-10-17 12:15:00
8:35 AM,62.6,59.0,88,29.92,5.0,SW,4.6,-,N/A,,Overcast,230,2013-10-17 12:35:00
8:55 AM,62.6,59.0,88,29.92,5.0,SW,3.5,-,N/A,,Mostly Cloudy,230,2013-10-17 12:55:00
9:15 AM,64.4,59.0,83,29.92,7.0,SW,4.6,-,N/A,,Scattered Clouds,220,2013-10-17 13:15:00
9:35 AM,64.4,59.0,83,29.92,5.0,WSW,5.8,-,N/A,,Haze,240,2013-10-17 13:35:00
9:55 AM,64.4,59.0,83,29.92,5.0,SW,3.5,-,N/A,,Haze,230,2013-10-17 13:55:00
10:15 AM,64.4,59.0,83,29.92,5.0,SSW,5.8,-,N/A,,Haze,210,2013-10-17 14:15:00
10:35 AM,66.2,60.8,83,29.92,7.0,SSW,3.5,-,N/A,,Overcast,200,2013-10-17 14:35:00
10:55 AM,66.2,59.0,78,29.91,7.0,Calm,Calm,-,N/A,,Overcast,0,2013-10-17 14:55:00
11:15 AM,68.0,59.0,73,29.91,7.0,NW,3.5,-,N/A,,Overcast,310,2013-10-17 15:15:00
11:35 AM,68.0,59.0,73,29.90,10.0,West,3.5,-,N/A,,Overcast,280,2013-10-17 15:35:00
11:55 AM,68.0,57.2,68,29.90,10.0,Calm,Calm,-,N/A,,Overcast,0,2013-10-17 15:55:00
12:15 PM,69.8,57.2,64,29.89,10.0,Calm,Calm,-,N/A,,Overcast,0,2013-10-17 16:15:00
12:35 PM,69.8,59.0,68,29.88,10.0,NNW,3.5,-,N/A,,Scattered Clouds,340,2013-10-17 16:35:00
12:55 PM,71.6,57.2,60,29.87,10.0,SE,4.6,-,N/A,,Scattered Clouds,130,2013-10-17 16:55:00
1:15 PM,71.6,55.4,57,29.86,10.0,Calm,Calm,-,N/A,,Scattered Clouds,0,2013-10-17 17:15:00
1:35 PM,73.4,55.4,53,29.84,10.0,Calm,Calm,-,N/A,,Mostly Cloudy,0,2013-10-17 17:35:00
1:55 PM,71.6,55.4,57,29.85,10.0,WSW,4.6,-,N/A,,Mostly Cloudy,240,2013-10-17 17:55:00
2:15 PM,71.6,55.4,57,29.83,10.0,Calm,Calm,-,N/A,,Mostly Cloudy,0,2013-10-17 18:15:00
2:35 PM,71.6,55.4,57,29.83,10.0,SW,5.8,-,N/A,,Overcast,220,2013-10-17 18:35:00
2:55 PM,71.6,55.4,57,29.83,10.0,South,4.6,-,N/A,,Overcast,190,2013-10-17 18:55:00
3:15 PM,71.6,57.2,60,29.82,10.0,SSW,5.8,-,N/A,,Overcast,200,2013-10-17 19:15:00
3:35 PM,71.6,57.2,60,29.81,10.0,South,5.8,-,N/A,,Overcast,180,2013-10-17 19:35:00
3:55 PM,71.6,59.0,64,29.81,10.0,SSE,4.6,-,N/A,,Overcast,160,2013-10-17 19:55:00
4:15 PM,71.6,57.2,60,29.81,10.0,South,8.1,-,N/A,,Overcast,180,2013-10-17 20:15:00
4:35 PM,69.8,57.2,64,29.79,10.0,SSE,8.1,-,N/A,,Overcast,150,2013-10-17 20:35:00
4:55 PM,69.8,57.2,64,29.78,10.0,South,6.9,-,N/A,,Overcast,170,2013-10-17 20:55:00
5:15 PM,69.8,57.2,64,29.78,10.0,SSE,6.9,-,N/A,,Overcast,160,2013-10-17 21:15:00
5:35 PM,69.8,59.0,68,29.78,10.0,South,8.1,-,N/A,,Overcast,170,2013-10-17 21:35:00
5:55 PM,69.8,59.0,68,29.77,10.0,SSE,6.9,-,N/A,,Overcast,160,2013-10-17 21:55:00
6:15 PM,68.0,60.8,78,29.76,7.0,SSE,5.8,-,N/A,Rain,Light Rain,160,2013-10-17 22:15:00
6:35 PM,68.0,60.8,78,29.75,10.0,SSE,5.8,-,N/A,,Mostly Cloudy,150,2013-10-17 22:35:00
6:55 PM,68.0,60.8,78,29.75,10.0,SSE,6.9,-,N/A,Rain,Light Rain,160,2013-10-17 22:55:00
7:15 PM,66.2,60.8,83,29.75,10.0,South,5.8,-,N/A,,Mostly Cloudy,170,2013-10-17 23:15:00
7:35 PM,66.2,60.8,83,29.74,10.0,SSE,8.1,-,N/A,,Overcast,160,2013-10-17 23:35:00
7:55 PM,66.2,60.8,83,29.74,10.0,South,6.9,-,N/A,,Overcast,180,2013-10-17 23:55:00
8:15 PM,66.2,60.8,83,29.73,10.0,South,9.2,-,N/A,,Overcast,170,2013-10-18 00:15:00
8:35 PM,66.2,60.8,83,29.74,10.0,South,5.8,-,N/A,,Overcast,180,2013-10-18 00:35:00
8:55 PM,66.2,60.8,83,29.73,10.0,SSW,3.5,-,N/A,,Overcast,210,2013-10-18 00:55:00
9:15 PM,66.2,60.8,83,29.73,10.0,SW,6.9,-,N/A,,Overcast,220,2013-10-18 01:15:00
9:35 PM,66.2,60.8,83,29.72,7.0,SSW,4.6,-,N/A,,Overcast,210,2013-10-18 01:35:00
9:55 PM,66.2,60.8,83,29.71,10.0,South,6.9,-,N/A,,Overcast,190,2013-10-18 01:55:00
10:15 PM,66.2,60.8,83,29.71,10.0,SSW,6.9,-,N/A,,Overcast,200,2013-10-18 02:15:00
10:35 PM,66.2,60.8,83,29.71,7.0,SSW,10.4,16.1,N/A,,Overcast,200,2013-10-18 02:35:00
10:55 PM,64.4,60.8,88,29.71,5.0,SSW,11.5,17.3,0.01,Rain,Light Rain,200,2013-10-18 02:55:00
11:15 PM,64.4,60.8,88,29.73,7.0,SW,12.7,19.6,0.01,Rain,Light Rain,230,2013-10-18 03:15:00
11:35 PM,64.4,60.8,88,29.74,10.0,West,9.2,19.6,0.01,,Overcast,260,2013-10-18 03:35:00
11:55 PM,64.4,59.0,83,29.74,10.0,West,10.4,17.3,0.01,,Overcast,260,2013-10-18 03:55:00